Location: Caltech
(34.1382°N, 118.1253°W)
Time: 09:14:30
(UTC-08:00)

AO-7 - Visible Passes

Search period start: 21 December 2014 00:00
Search period end: 31 December 2014 00:00
Orbit: 1440 x 1458 km, 101.5° (Epoch: 21 December)

Date Brightness Start Highest point End Pass type
(mag) Time Alt. Az. Time Alt. Az. Time Alt. Az.
21 Dec ? 02:49:55 10° NE 02:55:59 22° E 03:01:58 10° SE visible
21 Dec ? 04:40:57 10° N 04:49:15 69° WNW 04:57:30 10° SSW visible
22 Dec ? 03:41:16 10° NNE 03:49:22 51° ESE 03:57:23 10° S visible
22 Dec ? 05:34:38 10° N 05:41:44 33° WNW 05:48:50 10° WSW visible
23 Dec ? 02:43:24 10° NE 02:48:58 19° E 02:54:28 10° SE visible
23 Dec ? 04:33:59 10° NNE 04:42:21 76° WNW 04:50:39 10° SSW visible
23 Dec ? 17:28:00 10° WSW 17:30:28 11° W 17:32:57 10° WNW visible
24 Dec ? 03:34:27 10° NNE 03:42:25 46° E 03:50:17 10° S visible
24 Dec ? 05:27:33 10° N 05:34:54 36° WNW 05:42:13 10° SW visible
25 Dec ? 02:37:00 10° NE 02:41:56 17° E 02:46:51 10° SE visible
25 Dec ? 04:27:03 10° NNE 04:35:27 83° WNW 04:43:47 10° SSW visible
25 Dec ? 06:22:22 10° NNW 06:26:58 16° NW 06:31:33 10° W visible
25 Dec ? 17:19:43 10° WSW 17:23:25 14° W 17:27:09 10° WNW visible
26 Dec ? 03:27:39 10° NNE 03:35:27 41° E 03:43:09 10° SSE visible
26 Dec ? 05:20:30 10° N 05:28:03 40° WNW 05:35:34 10° SW visible
27 Dec ? 02:30:43 10° ENE 02:34:55 15° E 02:39:04 10° ESE visible
27 Dec ? 04:20:07 10° NNE 04:28:32 89° ESE 04:36:53 10° SSW visible
27 Dec ? 06:15:04 10° NNW 06:20:11 18° NW 06:25:17 10° W visible
27 Dec ? 17:11:50 10° SW 17:16:23 16° W 17:20:59 10° WNW visible
28 Dec ? 03:20:53 10° NE 03:28:28 37° E 03:35:59 10° SSE visible
28 Dec ? 05:13:28 10° N 05:21:12 44° WNW 05:28:53 10° SW visible
29 Dec ? 02:24:42 10° ENE 02:27:53 12° E 02:31:02 10° ESE visible
29 Dec ? 04:13:12 10° NNE 04:21:37 82° ESE 04:29:57 10° SSW visible
29 Dec ? 06:07:50 10° NNW 06:13:23 20° WNW 06:18:56 10° W visible
30 Dec ? 03:14:08 10° NE 03:21:30 33° E 03:28:46 10° SSE visible
30 Dec ? 05:06:27 10° N 05:14:20 48° WNW 05:22:11 10° SW visible
